Location: Novokuznetsk
(53.7500°N, 87.1000°E)
Time: 19:03:05
(UTC+06:00)

ISS - Pass Details

Date: 21 April 2026
Orbit: 414 x 424 km, 51.6° (Epoch: 18 May)

Event Time Altitude Azimuth Distance (km) Brightness Sun altitude
Exits shadow 04:02:34 - 195° (SSW) 1,904 -0.9 -8.2°
Reaches altitude 10° 04:03:59 10° 180° (S) 1,497 -1.3 -8.0°
Maximum altitude 04:05:58 15° 143° (SE) 1,239 -1.3 -7.7°
Drops below altitude 10° 04:07:57 10° 107° (ESE) 1,506 -0.3 -7.5°
Sets 04:10:43 0° 83° (E) 2,378 1.5 -7.1°
